Location: Ariel
(45.9570°N, 122.5700°W)
Time: 02:13:58
(UTC-07:00)

A-11 Canister half - Pass Details

Date: 28 August 2019
Orbit: 1513 x 1686 km, 47.2° (Epoch: 23 September)

Event Time Altitude Azimuth Distance (km) Brightness Sun altitude
Rises 22:48:19 0° 290° (WNW) 4,747 12.5 -26.0°
Reaches altitude 10° 22:51:23 10° 288° (WNW) 3,783 11.8 -26.3°
Maximum altitude 23:00:51 64° 210° (SSW) 1,767 9.1 -27.4°
Enters shadow 23:03:35 49° 156° (SSE) 2,030 9.1 -27.6°
